Regional Weather Roundup
Issued by NWS

Home | Current Version | Previous Version | Text Only | Print | Product List | Glossary Off
Versions: 1 2 3 4 5 6 7 8 9 10 11 12 13 14 15 16 17 18 19 20 21 22 23 24 25 26 27 28 29 30 31 32 33 34 35 36 37 38 39 40 41 42 43 44 45 46 47 48 49 50

000
ASUS46 KSTO 260509
RWRCA

NORTHERN AND CENTRAL CA REGIONAL WEATHER ROUNDUP
NATIONAL WEATHER SERVICE SACRAMENTO CA
1000 PM PDT MON MAY 25 2015

NOTE: FAIR INDICATES FEW OR NO CLOUDS BELOW 12,000 FEET WITH NO
SIGNIFICANT WEATHER AND/OR OBSTRUCTIONS TO VISIBILITY.

CAZ001-003-260600-
NORTHWEST AREA

CITY           SKY/WX    TMP DP  RH WIND       PRES   REMARKS
CRESCENT CITY  PTCLDY    51  49  92 S16G24    29.94R
ARCATA         NOT AVBL
SHELTER COVE   NOT AVBL
UKIAH          CLEAR     62  51  67 S7        29.91R
$$

CAZ006-505>513-260600-
BAY AREA

CITY           SKY/WX    TMP DP  RH WIND       PRES   REMARKS
SANTA ROSA     CLOUDY    53  48  83 S5        29.95R
SAN RAFAEL     N/A       55  MM  MM MISG
NAPA           CLOUDY    52  48  86 W15       29.96R
CONCORD        MOCLDY    56  49  77 S15       29.97R
OAKLAND CITY   N/A       56  MM  MM MISG
OAKLAND        CLOUDY    55  49  80 W8        29.99R
SAN FRAN CITY  N/A       54  MM  82 MISG
SAN FRAN ARPT  CLOUDY    56  49  77 W13       29.99R
LIVERMORE      CLOUDY    56  50  80 W10       29.97R
HAYWARD        CLOUDY    56  50  80 W10       29.99R
REDWOOD CITY   N/A       MM  MM  MM MISG
MOFFETT ARPT   CLEAR     55  50  83 NW5       29.99R
SAN JOSE ARPT  MOCLDY    57  51  80 NW9       29.98R
$$
CAZ034-037-514>518-260600-
CENTRAL COAST

CITY           SKY/WX    TMP DP  RH WIND       PRES   REMARKS
WATSONVILLE    CLOUDY    55  50  83 S7        30.01R
SALINAS        CLOUDY    57  51  80 W7        30.01R
MONTEREY       CLOUDY    54  51  90 SW3       30.02R
PT PIEDRAS BLS NOT AVBL
SAN LUIS OBISP CLOUDY    56  49  77 NW10      30.02R
SANTA MARIA    CLOUDY    57  50  77 N6        30.03R
$$
CAZ015-016-260600-
NORTHERN SACRAMENTO VALLEY

CITY           SKY/WX    TMP DP  RH WIND       PRES   REMARKS
REDDING        MOCLDY    77  53  43 E5        29.85R
RED BLUFF      CLEAR     73  54  51 S7        29.85R
OROVILLE       PTCLDY    71  55  56 SE13      29.89R
$$
CAZ016>018-260600-
SOUTHERN SACRAMENTO VALLEY

CITY           SKY/WX    TMP DP  RH WIND       PRES   REMARKS
AUBURN         PTCLDY    64  52  63 S5        29.93R
LINCOLN        FAIR      61  50  67 S13       29.88R
MARYSVILLE     CLEAR     63  52  67 S12       29.87R
SAC INTL ARPT  CLEAR     57  50  77 S16       29.88R
MATHER AIRPORT PTCLDY    57  52  82 SW9       29.91R
DOWNTOWN SAC   N/A       59  MM  MM MISG
SAC EXEC ARPT  CLEAR     57  51  80 SW9G18    29.90R
VACAVILLE      CLEAR     58  49  72 SW12      29.88R
TRAVIS AFB     CLEAR     55  50  84 W24       29.89R
$$
CAZ019>021-260600-
SAN JOAQUIN VALLEY

CITY           SKY/WX    TMP DP  RH WIND       PRES   REMARKS
STOCKTON       CLEAR     60  51  72 W12G18    29.91R
MODESTO        CLEAR     65  49  56 NW10      29.89R
MERCED         CLEAR     69  53  56 NW8       29.89R
LEMOORE        CLEAR     74  45  35 NW14      29.88R
FRESNO         CLEAR     75  47  36 NW8       29.87R
HANFORD        CLEAR     76  47  35 NW14      29.86R
PORTERVILLE    PTCLDY    73  46  38 W12       29.87R
BAKERSFIELD    CLEAR     74  45  35 N13       29.87R
$$
CAZ011-012-071-260600-
NORTHERN MOUNTAINS

CITY           SKY/WX    TMP DP  RH WIND       PRES   REMARKS
YREKA          CLEAR     58  37  45 NE9       29.96R
MOUNT SHASTA   CLEAR     54  50  86 CALM      29.99R
ALTURAS        PTCLDY    53  48  83 S5        30.00R
$$
CAZ011-012-071-260600-
SIERRA NEVADA MTNS

CITY           SKY/WX    TMP DP  RH WIND       PRES   REMARKS
BLUE CANYON    PTCLDY    54  41  61 CALM      30.07R
TRUCKEE        PTCLDY    43  41  93 CALM      30.10R THUNDER
TAHOE VLY ARPT PTCLDY    49  43  80 CALM      30.09R
MAMMOTH LAKES  FAIR      50  39  66 W6        30.13R
$$




USA.gov is the U.S. government's official web portal to all federal, state and local government web resources and services.